Santa Fe, NM

4:24 AM MDT on July 23, 2017 (GMT -0600)
Santa Fe Municipal

Weather History for KSAF - November, 2012

Change the Weather History Date:

Friday, November 9, 2012

  Actual Average Record
Temperature  
Mean Temperature 47 °F -  
Max Temperature 57 °F 58 °F 69 °F (2006)
Min Temperature 37 °F 20 °F 9 °F (1977)
Degree Days  
Heating Degree Days 18    
Moisture  
Dew Point 34 °F    
Average Humidity 63    
Maximum Humidity 89    
Minimum Humidity 37    
Precipitation  
Precipitation 0.04 in - - ()
Sea Level Pressure  
Sea Level Pressure 29.82 in    
Wind  
Wind Speed 5 mph (SSW)    
Max Wind Speed 18 mph    
Max Gust Speed 24 mph    
Visibility 10 miles    
Events Rain    
Averages and records for this station are not official NWS values.
T = Trace of Precipitation, MM = Missing Value Source: NWS Daily Summary

Daily Weather History Graph

Daily Weather History Graph

Search for Another Location

Airport or City:

Trip Planner

Search our weather history database for the weather conditions in past years. The results will help you decide how hot, cold, wet, or windy it might be!

Date:

Astronomy

Nov. 09, 2012 Rise Set
Actual Time 6:34 AM MST 5:01 PM MST
Civil Twilight 6:07 AM MST 5:28 PM MST
Nautical Twilight 5:37 AM MST 5:58 PM MST
Astronomical Twilight 5:07 AM MST 6:28 PM MST
Moon 1:45 AM MST (11/9) 2:08 PM MST (11/9)
Length of Visible Light 11h 20m
Length of Day
10h 26m
Waning Crescent, 22% of the Moon is Illuminated
Nov 9
Waning Crescent
Nov 13
New
Nov 20
First Quarter
Nov 28
Full
Dec 6
Last Quarter

Hourly Weather History & Observations

Time (MST) Temp. Windchill Dew Point Humidity Pressure Visibility Wind Dir Wind Speed Gust Speed Precip Events Conditions
12:53 AM 39.9 °F - 19.9 °F 45% 29.84 in 10.0 mi Calm Calm - N/A   Clear
1:53 AM 39.0 °F 35.7 °F 21.0 °F 49% 29.85 in 10.0 mi East 4.6 mph - N/A   Clear
2:53 AM 37.0 °F - 19.9 °F 50% 29.86 in 10.0 mi Calm Calm - N/A   Mostly Cloudy
3:53 AM 45.0 °F 43.5 °F 19.9 °F 37% 29.86 in 10.0 mi SW 3.5 mph - N/A   Overcast
4:53 AM 43.0 °F 38.8 °F 21.0 °F 42% 29.85 in 10.0 mi East 6.9 mph - 0.00 in   Overcast
5:53 AM 37.0 °F 31.6 °F 21.0 °F 52% 29.88 in 10.0 mi WNW 6.9 mph - N/A   Clear
6:53 AM 39.0 °F 34.8 °F 24.1 °F 55% 29.88 in 10.0 mi NNE 5.8 mph - N/A   Clear
7:53 AM 48.9 °F - 30.9 °F 50% 29.88 in 10.0 mi NNW 3.5 mph - N/A   Clear
8:53 AM 54.0 °F - 30.9 °F 41% 29.89 in 10.0 mi West 4.6 mph - N/A   Mostly Cloudy
9:53 AM 55.9 °F - 32.0 °F 40% 29.90 in 10.0 mi SW 10.4 mph - N/A   Overcast
10:53 AM 57.0 °F - 30.9 °F 37% 29.88 in 10.0 mi WSW 16.1 mph 21.9 mph N/A   Mostly Cloudy
11:53 AM 54.0 °F - 32.0 °F 43% 29.86 in 10.0 mi WSW 18.4 mph 24.2 mph 0.00 in Rain Light Rain
12:53 PM 48.9 °F - 42.1 °F 77% 29.85 in 10.0 mi WSW 9.2 mph - 0.01 in Rain Light Rain
1:53 PM 55.0 °F - 37.9 °F 53% 29.78 in 10.0 mi SW 8.1 mph - 0.00 in   Clear
2:53 PM 50.0 °F - 43.0 °F 77% 29.82 in 10.0 mi SW 17.3 mph 21.9 mph 0.01 in Rain Light Rain
3:53 PM 48.9 °F - 44.1 °F 83% 29.78 in 10.0 mi South 6.9 mph - 0.00 in   Overcast
4:53 PM 48.0 °F - 43.0 °F 83% 29.78 in 10.0 mi South 3.5 mph - N/A   Scattered Clouds
5:53 PM 48.0 °F - 43.0 °F 83% 29.81 in 10.0 mi SE 10.4 mph - N/A   Overcast
6:53 PM 48.0 °F - 42.1 °F 80% 29.79 in 10.0 mi SE 9.2 mph - 0.00 in Rain Light Rain
7:53 PM 46.9 °F - 43.0 °F 86% 29.75 in 10.0 mi SE 6.9 mph - 0.01 in Rain Light Rain
8:53 PM 46.9 °F - 42.1 °F 83% 29.74 in 10.0 mi South 3.5 mph - 0.01 in   Mostly Cloudy
9:53 PM 46.0 °F 42.5 °F 42.1 °F 86% 29.74 in 10.0 mi SE 6.9 mph - 0.00 in Rain Light Rain
10:53 PM 44.1 °F 40.8 °F 41.0 °F 89% 29.71 in 10.0 mi ESE 5.8 mph - N/A   Scattered Clouds
11:53 PM 43.0 °F - 39.0 °F 86% 29.70 in 10.0 mi Calm Calm - N/A   Mostly Cloudy